Location: Fort Collins
(40.5509°N, 105.0668°W)
Time: 02:48:38
(UTC-06:00)

ISS - Visible Passes

Search period start: 02 July 2022 00:00
Search period end: 12 July 2022 00:00
Orbit: 414 x 420 km, 51.6° (Epoch: 02 July)

Date Brightness Start Highest point End Pass type
(mag) Time Alt. Az. Time Alt. Az. Time Alt. Az.
02 Jul -2.0 02:20:04 28° ENE 02:20:04 28° ENE 02:21:50 10° ENE visible
02 Jul -1.6 03:52:57 11° WNW 03:55:30 22° NNW 03:58:15 10° NNE visible
03 Jul -0.7 01:33:26 10° ENE 01:33:26 10° ENE 01:33:28 10° ENE visible
03 Jul -2.2 03:06:19 27° NW 03:07:09 31° NNW 03:10:12 10° NE visible
03 Jul -0.9 04:43:00 10° NW 04:44:44 13° N 04:46:28 10° NNE visible
04 Jul -2.3 02:19:38 38° N 02:19:38 38° N 02:22:07 10° NE visible
04 Jul -0.9 03:54:12 10° NW 03:56:15 15° NNW 03:58:19 10° NNE visible
05 Jul -1.2 01:32:53 19° NE 01:32:53 19° NE 01:33:58 10° NE visible
05 Jul -1.2 03:05:46 12° WNW 03:07:48 18° NNW 03:10:13 10° NNE visible
05 Jul -0.7 04:44:01 10° NNW 04:45:35 13° N 04:47:10 10° NNE visible
06 Jul -1.6 02:18:58 22° NW 02:19:23 23° NNW 02:22:09 10° NNE visible
06 Jul -0.7 03:55:30 10° NNW 03:57:04 13° N 03:58:38 10° NNE visible
07 Jul -1.5 01:32:05 25° N 01:32:05 25° N 01:34:03 10° NE visible
07 Jul -0.7 03:06:47 10° NW 03:08:33 13° N 03:10:18 10° NNE visible
07 Jul -0.8 04:44:16 10° NNW 04:46:22 15° NNE 04:48:29 10° NE visible
08 Jul -1.0 00:45:06 16° NE 00:45:06 16° NE 00:45:55 10° NE visible
08 Jul -0.7 02:17:58 10° NW 02:20:01 15° NNW 02:22:06 10° NNE visible
08 Jul -0.6 03:56:05 10° NNW 03:57:51 13° N 03:59:37 10° NE visible
09 Jul -1.1 01:30:50 17° NW 01:31:31 18° NNW 01:33:58 10° NNE visible
09 Jul -0.5 03:07:44 10° NNW 03:09:18 13° N 03:10:52 10° NNE visible
09 Jul -1.1 04:44:12 10° NNW 04:46:59 23° NNE 04:49:45 10° ENE visible
10 Jul -1.3 00:43:24 23° NNW 00:43:24 23° NNW 00:45:51 10° NNE visible
10 Jul -0.5 02:19:10 10° NNW 02:20:43 13° N 02:22:17 10° NNE visible
10 Jul -0.7 03:56:05 10° NNW 03:58:30 18° NNE 04:00:56 10° ENE visible
10 Jul -1.9 23:55:11 31° N 23:55:11 31° N 23:57:42 10° NE visible
11 Jul -0.5 01:30:22 10° NW 01:32:09 14° N 01:33:56 10° NNE visible
11 Jul -0.5 03:07:56 10° NNW 03:09:58 15° NNE 03:12:01 10° NE visible
11 Jul -2.6 04:44:06 10° NW 04:47:22 47° NNE 04:50:37 10° ESE visible
11 Jul -2.3 21:27:26 10° S 21:29:45 18° SE 21:32:05 10° E visible
11 Jul -3.0 23:02:57 10° WSW 23:06:14 51° NNW 23:09:31 10° NE visible
